ONEWEB-0056, 45159

Orbit data source: Space-Track

ONEWEB-0056, 45159 is a payload satellite owned by One Web (UK) in LEO that was launched on Thu, 06 Feb 2020 UTC via a SOYUZ-2-1B launch vehicle from the Tyuratam Missile And Space Complex (TTMTR). Payload-class satellites include a variety of spacecraft equipped with specific instruments for various scientific and technological missions. These include communications satellites like Starlink; space stations such as the ISS; scientific satellites like the Hubble; Earth observation satellites from companies like Planet Labs, Umbra, and HawkEye 360; GPS; miniature CubeSats for education and research; and military/defense satellites.

Loading next visibility...
Identifier
45159, 2020-008AE
Orbit
LEO
Country
Flag of UKUK
Related business
Manufacturer
One Web
Mission
Operational Commercial Communications
Bus & Motor
ARROW, Unknown motor
Mass
148 kg wet, ~140 kg dry
Launch date (UTC)
2020-02-06 (6 years ago)
Launch vehicle
SOYUZ-2-1B
Launch site
Tyuratam Missile And Space Complex (TTMTR)
Object type
Payload
Rocket body
Debris
Shape & HBR
Trap Box + 2 Pan, 6.7 m
Radar Cross Section
3.464 m², Large (>1 m²)

Expand to show TLE details & history
Last TLE update: 5 hours ago

TLE from 5 hours ago
0 ONEWEB-0056
1 45159U 20008AE  26035.12523176  .00000383  00000-0  10600-2 0  9990
2 45159  87.8761  62.7767 0002060  94.8466 265.2896 13.10375398290754
Epoch: 2026-02-04T03:00Z
TLE epoch observation values (Epoch: 2026-02-04T03:00:20.024Z)
Latitude
-0.00006°
Longitude
-116.60304°
Altitude
1,224.724 km
Speed
7.242 km/s
True Right ascension
04h 11m 06s
True Declination
0° 00' 00"
Sunlit
Object was in daylight at epoch
Visualization orbit readout
Latitude
Unknown
Longitude
Unknown
Altitude
Unknown
Speed
Unknown
Apparent Right ascension
Unknown
Apparent Declination
Unknown
Sunlit
N/A
Visualization observer readout
Local Sidereal Time
10:05:24
Azimuth
Unknown
Elevation
Unknown
Doppler factor
Unknown
Orbital elements
Apogee altitude
1,220.392 km
Perigee altitude
1,217.262 km
Semi-major axis
7,596.964 km
Eccentricity
0.00021
Inclination
87.8761°
RAAN
62.7767°
Arg. of periapsis
94.8466°
True anomaly
265.26607°
Mean anomaly
265.2896°
Eccentric anomaly
265.27784°
Mean motion
3.2778 °/min
Orbital period
109.83 mins
BSTAR
0.00106
Loading maneuver chart data...
Computing Atmospheric mass density...
Loading historical data...
Loading historical data...
Loading historical data...
Loading historical data...
Loading historical data...
Loading historical data...
Loading historical data...

Documentation

Showing up to 5 results
|